Regional Weather Roundup
Issued by NWS Goodland, KS

Home | Current Version | Previous Version | Graphics & Text | Print | Product List | Glossary On
Versions: 1 2 3 4 5 6 7 8 9 10 11 12 13 14 15 16 17 18 19 20 21 22 23 24 25 26 27 28 29 30 31 32 33 34 35 36 37 38 39 40 41 42 43 44 45 46 47 48 49 50
000
ASUS43 KGLD 261159
RWRGLD

GOODLAND FORECAST AREA HOURLY WEATHER ROUNDUP
NATIONAL WEATHER SERVICE GOODLAND KS
600 AM MDT TUE JUL 26 2016

...OFFICIAL OBSERVATIONS...

CITY           SKY/WX    TMP DP  RH WIND       PRES   REMARKS
GOODLAND KS    CLOUDY    67  65  93 S14       30.13F
HILL CITY KS   FOG       64  64 100 CALM      30.10S VSB<1/4
IMPERIAL NEB   PTCLDY    66  64  93 S9        30.11S
MCCOOK NEB     CLEAR     64  62  93 S5        30.11R
AKRON CO       CLEAR     60  57  89 S14       30.13S
BURLINGTON CO  CLOUDY    67  64  90 S15       30.15S
LIMON CO       NOT AVBL
$$

...UNOFFICIAL OBSERVATIONS...

CITY           SKY/WX    TMP DP  RH WIND       PRES   REMARKS
COLBY KS       CLOUDY    68  68 100 S9        30.14S FOG
GOVE KS          N/A     67  32  27 MISG        N/A
LENORA KS        N/A     65  32  29 MISG        N/A
NORTON KS      PTCLDY    64  63  94 CALM      30.10R FOG
SHARON SPRINGS   N/A     68  66  94 S13G20      N/A
KIT CARSON CO    N/A     64  60  87 MISG        N/A
YUMA CO          N/A     63  62  95 CALM        N/A
$$




USA.gov is the U.S. government's official web portal to all federal, state and local government web resources and services.